This is the latest recevied weather packets stored in our database for station/object N3MFL. If no packets are shown the sender has not sent any weather packets the latest 10 day(s).
| Time | Temp. | Humidity | Pressure | Rain* | Wind** | Luminosity | Snow |
|---|---|---|---|---|---|---|---|
| 1778067445 | 14.44° C | 85% | 1012.6 hPa | 0 mm | - | 142 W/m² | - |
| 1778067143 | 14.44° C | 85% | 1012.5 hPa | 0 mm | - | 203 W/m² | - |
| 1778066839 | 14.44° C | 86% | 1012.7 hPa | 0 mm | - | 110 W/m² | - |
| 1778066537 | 14.44° C | 86% | 1012.8 hPa | 0 mm | - | 75 W/m² | - |
| 1778066234 | 13.89° C | 87% | 1012.8 hPa | 0 mm | - | 97 W/m² | - |
| 1778065932 | 13.89° C | 87% | 1012.8 hPa | 0 mm | - | 68 W/m² | - |
| 1778065628 | 13.89° C | 87% | 1012.8 hPa | 0 mm | - | 57 W/m² | - |
| 1778065326 | 13.89° C | 88% | 1012.8 hPa | 0 mm | - | 46 W/m² | - |
| 1778065023 | 13.89° C | 88% | 1012.7 hPa | 0 mm | - | 32 W/m² | - |
| 1778064719 | 13.89° C | 87% | 1012.7 hPa | 0 mm | - | 32 W/m² | - |
| 1778064418 | 13.89° C | 87% | 1012.6 hPa | 0 mm | - | 41 W/m² | - |
| 1778064115 | 13.89° C | 88% | 1012.7 hPa | 0 mm | - | 43 W/m² | - |
| 1778063812 | 13.89° C | 88% | 1012.4 hPa | 0 mm | - | 51 W/m² | - |
| 1778063509 | 13.89° C | 89% | 1012.6 hPa | 0 mm | - | 56 W/m² | - |
| 1778063207 | 13.89° C | 89% | 1012.6 hPa | 0 mm | - | 50 W/m² | - |
| 1778062904 | 13.89° C | 89% | 1012.6 hPa | 0 mm | - | 36 W/m² | - |
| 1778062601 | 13.89° C | 89% | 1012.7 hPa | 0 mm | - | 24 W/m² | - |
| 1778062298 | 13.89° C | 89% | 1012.5 hPa | 0 mm | - | 17 W/m² | - |
| 1778061996 | 13.89° C | 89% | 1012.4 hPa | 0 mm | - | 16 W/m² | - |
| 1778061694 | 13.89° C | 89% | 1012.2 hPa | 0 mm | - | 13 W/m² | - |
| 1778061392 | 13.89° C | 89% | 1012.2 hPa | 0 mm | - | 11 W/m² | - |
| 1778061089 | 13.89° C | 88% | 1012.3 hPa | 0 mm | - | 8 W/m² | - |
| 1778060786 | 13.89° C | 88% | 1012.2 hPa | 0 mm | - | 5 W/m² | - |
| 1778060484 | 13.89° C | 88% | 1012.3 hPa | 0 mm | - | 4 W/m² | - |
| 1778060182 | 13.89° C | 88% | 1012.2 hPa | 0 mm | - | 2 W/m² | - |
* Rain latest hour (hover to see other rain measurements)
** Current wind speed in m/s (hover to see current wind gust speed)